Flag for Botswana Weather past 2 weeks in Molepolole, Botswana

Now
68 °F

Clear.


Feels Like: 68 °F
Forecast: 45 / 67 °F
Wind: 12 mph from Northeast

Location: Seretse Khama International Airport

Current Time: Jul 7, 2015 at 5:29:05 PM

Latest Report: Jul 7, 2015 at 5:00 PM


Visibility: 10 mi

Pressure: 30.39 "Hg (26.59 "Hg at 1145m altitude)

Humidity: 38%

Dew point: 41 °F

Location of MolepololeLocation

Historic Weather in Molepolole — Graph

°F

Molepolole temperature yesterday

Maximum temperature yesterday: 75 °F (at 3:00 PM)
Minimum temperature yesterday: 39 °F (at 5:00 AM)
Average temperature yesterday: 58 °F

Past Weeks' High & Low Weather Summary

 TemperatureHumidityPressure
High79 °F (Jun 25, 3:00 PM)100% (Jun 28, 5:00 AM)30.51 "Hg (Jun 28, 5:00 AM)
Low36 °F (Jun 30, 6:00 AM)12% (Jun 25, 3:00 PM)30.01 "Hg (Jul 4, 6:00 PM)
Average58 °F48%30.29 "Hg
* Reported Jun 22 4:00 PM — Jul 7 4:00 PM, Molepolole, Weather by CustomWeather, © 2015

Note: Actual official high and low records may vary slightly from our data, if they occured in-between our weather recording intervals... More about our weather records

Advertising

Molepolole weather history for previous 24 hours

 ConditionsComfort  
Time TempWeatherWind HumidityBarometerVisibility
4:00 PM
Tue, Jul 7
70 °FScattered clouds.12 mph35%30.39 "HgN/A
3:00 PM70 °FScattered clouds.13 mph38%30.39 "HgN/A
2:00 PM68 °FScattered clouds.14 mph40%30.42 "HgN/A
1:00 PM50 °FScattered clouds.13 mph76%30.45 "HgN/A
12:00 PM66 °FScattered clouds.9 mph46%30.48 "HgN/A
11:00 AM64 °FScattered clouds.17 mph49%30.51 "HgN/A
10:00 AM63 °FPassing clouds.17 mph52%30.51 "HgN/A
9:00 AM57 °FPassing clouds.8 mph51%30.51 "HgN/A
8:00 AM52 °FPassing clouds.7 mph50%30.48 "HgN/A
7:00 AM50 °FSunny.9 mph54%30.48 "Hg10 mi
6:00 AM48 °FSunny.7 mph50%30.45 "Hg10 mi
5:00 AM46 °FClear.7 mph50%30.42 "Hg10 mi
4:00 AM46 °FClear.5 mph50%30.42 "Hg10 mi
3:00 AM45 °FPassing clouds.3 mph57%30.42 "HgN/A
2:00 AM46 °FClear.3 mph57%30.39 "Hg6 mi
1:00 AM48 °FClear.5 mph50%30.36 "Hg5 mi
12:00 AM50 °FClear.3 mph47%30.36 "Hg10 mi
11:00 PM
Mon, Jul 6
50 °FClear.3 mph47%30.39 "Hg6 mi
10:00 PM52 °FClear.1 mph44%30.36 "Hg10 mi
9:00 PM54 °FClear.1 mph41%30.36 "Hg10 mi
8:00 PM59 °FClear.1 mph34%30.33 "Hg10 mi
7:00 PM63 °FClear.2 mph30%30.30 "Hg10 mi
6:00 PM68 °FClear.3 mph26%30.30 "Hg10 mi
5:00 PM73 °FPassing clouds.5 mph20%30.30 "HgN/A
Weather by CustomWeather, © 2015

See weather overviewHow to use our weather pages